This is the latest recevied weather packets stored in our database for station/object EA7OC-10. If no packets are shown the sender has not sent any weather packets the latest 10 day(s).
| Time | Temp. | Humidity | Pressure | Rain* | Wind** | Luminosity | Snow |
|---|---|---|---|---|---|---|---|
| 1777605591 | 15.56° C | 34% | 1019.1 hPa | - | - | - | - |
| 1777604691 | 15.56° C | 35% | 1019.2 hPa | - | - | - | - |
| 1777603791 | 15.56° C | 34% | 1018.9 hPa | - | - | - | - |
| 1777602891 | 15.56° C | 34% | 1018.7 hPa | - | - | - | - |
| 1777601991 | 16.11° C | 34% | 1018.7 hPa | - | - | - | - |
| 1777601087 | 16.11° C | 34% | 1018.6 hPa | - | - | - | - |
| 1777600186 | 16.11° C | 34% | 1018.6 hPa | - | - | - | - |
| 1777599286 | 16.11° C | 34% | 1018.6 hPa | - | - | - | - |
| 1777598386 | 16.67° C | 34% | 1018.7 hPa | - | - | - | - |
| 1777597486 | 16.11° C | 34% | 1018.8 hPa | - | - | - | - |
| 1777596586 | 16.67° C | 34% | 1018.9 hPa | - | - | - | - |
| 1777595683 | 16.67° C | 34% | 1018.9 hPa | - | - | - | - |
| 1777594782 | 17.22° C | 34% | 1018.9 hPa | - | - | - | - |
| 1777593882 | 17.22° C | 34% | 1018.9 hPa | - | - | - | - |
| 1777592982 | 17.78° C | 34% | 1018.6 hPa | - | - | - | - |
| 1777592082 | 17.78° C | 34% | 1018.5 hPa | - | - | - | - |
| 1777591182 | 18.33° C | 34% | 1018.4 hPa | - | - | - | - |
| 1777590280 | 18.89° C | 34% | 1018.4 hPa | - | - | - | - |
| 1777589380 | 18.89° C | 34% | 1018.4 hPa | - | - | - | - |
| 1777588480 | 19.44° C | 34% | 1018.4 hPa | - | - | - | - |
| 1777587579 | 19.44° C | 34% | 1018.2 hPa | - | - | - | - |
| 1777586679 | 20° C | 34% | 1018.2 hPa | - | - | - | - |
| 1777585779 | 20° C | 34% | 1018.1 hPa | - | - | - | - |
| 1777584879 | 20° C | 33% | 1018.1 hPa | - | - | - | - |
| 1777583979 | 20.56° C | 33% | 1017.9 hPa | - | - | - | - |
* Rain since midnight (hover to see other rain measurements)
** Current wind speed in m/s (hover to see current wind gust speed)